Home   Weather   Mobile   Past weeks

Flag for USA Past Weather in Mobile, Alabama, USA — Yesterday and Last 2 Weeks

Now
82 °F

Passing clouds.


Feels Like: 89 °F
Forecast: 77 / 91 °F
Wind: 8 mph from Northeast

Location: Mobile Downtown Airport

Current Time: Aug 30, 2016 at 10:08:02 AM

Latest Report: Aug 30, 2016 at 8:53 AM


Visibility: 10 mi

Pressure: 29.98 "Hg

Humidity: 79%

Dew Point: 75 °F

Location of MobileLocation

Past Weather in Mobile — Graph

°F

Mobile Temperature Yesterday

Maximum temperature yesterday: 92 °F (at 1:53 PM)
Minimum temperature yesterday: 75 °F (at 12:53 AM)
Average temperature yesterday: 84 °F

High & Low Weather Summary for the Past Weeks

 TemperatureHumidityPressure
High93 °F (Aug 23, 2:53 PM)100% (Aug 18, 5:53 AM)30.22 "Hg (Aug 18, 5:53 AM)
Low75 °F (Aug 22, 3:53 AM)46% (Aug 26, 2:53 PM)29.92 "Hg (Aug 20, 4:53 PM)
Average83 °F81%30.06 "Hg
* Reported Aug 15 8:53 AM — Aug 30 8:53 AM, Mobile, Weather by CustomWeather, © 2016

Note: Actual official high and low records may vary slightly from our data, if they occured in-between our weather recording intervals... More about our weather records

Advertising

Mobile Weather History for the Previous 24 Hours

Scroll right to see more
 ConditionsComfort  
Time TempWeatherWind HumidityBarometerVisibility
8:53 AM
Tue, Aug 30
82 °FPassing clouds.8 mph79%29.98 "Hg10 mi
7:53 AM80 °FPassing clouds.10 mph81%29.99 "Hg10 mi
6:53 AM79 °FPassing clouds.9 mph84%29.97 "Hg10 mi
5:53 AM79 °FClear.8 mph82%29.96 "Hg10 mi
4:53 AM80 °FClear.12 mph81%29.95 "Hg10 mi
3:53 AM80 °FClear.7 mph79%29.95 "Hg10 mi
2:53 AM81 °FClear.9 mph77%29.96 "Hg10 mi
1:53 AM81 °FClear.12 mph77%29.96 "Hg10 mi
12:53 AM83 °FClear.12 mph72%29.96 "Hg10 mi
11:53 PM
Mon, Aug 29
84 °FClear.10 mph67%29.97 "Hg10 mi
10:53 PM84 °FClear.9 mph70%29.97 "Hg10 mi
9:53 PM85 °FClear.9 mph68%29.97 "Hg10 mi
8:53 PM86 °FClear.7 mph67%29.97 "Hg10 mi
7:53 PM87 °FSunny.9 mph63%29.95 "Hg10 mi
6:53 PM89 °FPassing clouds.10 mph55%29.94 "Hg10 mi
5:53 PM91 °FPassing clouds.10 mph52%29.94 "Hg10 mi
4:53 PM92 °FPassing clouds.12 mph52%29.94 "Hg10 mi
3:53 PM92 °FScattered clouds.10 mph54%29.96 "Hg10 mi
2:53 PM92 °FScattered clouds.9 mph54%29.98 "Hg10 mi
1:53 PM92 °FScattered clouds.13 mph54%30.01 "Hg10 mi
12:53 PM91 °FScattered clouds.8 mph57%30.02 "Hg10 mi
11:53 AM89 °FScattered clouds.8 mph63%30.03 "Hg10 mi
10:53 AM87 °FPassing clouds.9 mph69%30.03 "Hg10 mi
Weather by CustomWeather, © 2016

See weather overviewHow to use our weather pages